Waarnemingen

Advertentie
Mijn weer
Solenzara, Frankrijk (7765): temperatuur & dauwpunt: 15.05.2019 01:00:00 - 21.05.2019 01:00:00 (CEST)Solenzara, Frankrijk (7765): temperatuur 5cm: 15.05.2019 01:00:00 - 21.05.2019 01:00:00 (CEST)Solenzara, Frankrijk (7765): temperatuur -20cm: 15.05.2019 01:00:00 - 21.05.2019 01:00:00 (CEST)Solenzara, Frankrijk (7765): windsnelheid & windstoten: 15.05.2019 01:00:00 - 21.05.2019 01:00:00 (CEST)Solenzara, Frankrijk (7765): windrichting: 15.05.2019 01:00:00 - 21.05.2019 01:00:00 (CEST)Solenzara, Frankrijk (7765): luchtdruk: 15.05.2019 01:00:00 - 21.05.2019 01:00:00 (CEST)Solenzara, Frankrijk (7765): zicht: 15.05.2019 01:00:00 - 21.05.2019 01:00:00 (CEST)Solenzara, Frankrijk (7765): Zonneschijnduur: 15.05.2019 01:00:00 - 21.05.2019 01:00:00 (CEST)Solenzara, Frankrijk (7765): neerslag: 15.05.2019 01:00:00 - 21.05.2019 01:00:00 (CEST)
Datum & Tijd tt [°C] td [°C] tt 5cm [°C] tt -20cm [°C] ff [km/u] ff [kn] fx [km/u] fx [kn] dd ppp [hPa] vv [km] sd [min] rr [mm]
21.05.2019 01:00:00 - - - - - - - - - - - - -
21.05.2019 00:00:00 15,4 11,4 13,8 19,2 8 4 15 8 WZW 1010,5 20 0 0,0
20.05.2019 23:00:00 15,6 11,6 14,2 19,3 5 3 11 6 W 1010,6 20 0 0,0
20.05.2019 22:00:00 16,3 11,2 14,6 19,3 4 2 8 4 NW 1010,4 20 0 0,0
20.05.2019 21:00:00 16,7 11,4 15,3 19,3 2 1 16 9 ZZO 1009,6 20 0 0,0
20.05.2019 20:00:00 17,2 11,2 16,8 19,3 11 6 22 12 ONO 1009,1 20 0 0,0
20.05.2019 19:00:00 17,6 10,2 18,1 19,2 17 9 35 19 NO 1008,3 20 0 0,0
20.05.2019 18:00:00 18,6 13,2 19,2 19,0 21 11 29 15 NO 1007,7 20 11 0,0
20.05.2019 17:00:00 20,6 9,2 22,2 18,8 12 6 20 11 NNO 1007,2 20 28 0,0
20.05.2019 16:00:00 20,3 9,2 24,2 18,6 10 5 20 11 O 1006,9 20 13 0,0
20.05.2019 15:00:00 20,6 12,0 23,6 18,3 10 6 32 17 ZZO 1006,9 20 26 0,0
20.05.2019 14:00:00 20,5 13,0 24,1 18,1 23 12 41 22 ZZO 1006,9 20 47 0,0
20.05.2019 13:00:00 19,7 10,1 25,9 17,9 6 4 20 11 OZO 1006,9 20 44 0,0
20.05.2019 12:00:00 18,9 10,2 23,3 17,8 11 6 17 9 O 1007,1 19 60 0,0
20.05.2019 11:00:00 17,1 9,0 23,2 17,7 8 4 12 6 OZO 1007,2 20 53 0,0
20.05.2019 10:00:00 17,2 8,9 22,0 17,8 7 4 13 7 OZO 1007,3 20 60 0,0
20.05.2019 09:00:00 16,0 9,4 16,4 17,9 5 3 10 5 Z 1007,1 20 31 0,0
20.05.2019 08:00:00 15,1 9,9 12,1 18,0 7 4 14 7 ZZO 1006,9 20 50 0,0
20.05.2019 07:00:00 11,6 6,7 7,1 18,2 9 5 13 7 W 1006,8 20 29 0,0
20.05.2019 06:00:00 9,8 6,5 6,3 18,3 6 3 14 7 WZW 1006,6 20 0 0,0
20.05.2019 05:00:00 10,5 6,6 5,9 18,5 4 2 12 6 WNW 1006,5 20 0 0,0
20.05.2019 04:00:00 10,5 6,8 6,7 18,7 3 2 12 7 N 1006,5 20 0 0,0
20.05.2019 03:00:00 12,0 6,5 7,7 18,9 5 3 13 7 WZW 1006,5 20 0 0,0
20.05.2019 02:00:00 12,1 7,8 8,0 19,0 4 2 12 7 Z 1006,8 20 0 0,0
20.05.2019 01:00:00 13,4 8,2 9,2 19,1 6 4 15 8 WNW 1007,1 20 0 0,0
20.05.2019 00:00:00 13,3 7,5 8,6 19,2 4 2 17 9 WNW 1007,2 20 0 0,0
19.05.2019 23:00:00 14,2 5,5 9,5 19,3 7 4 13 7 NNW 1007,2 20 0 0,0
19.05.2019 22:00:00 14,6 5,7 10,5 19,4 5 3 20 11 NW 1007,1 20 0 0,0
19.05.2019 21:00:00 15,2 6,7 12,3 19,4 6 4 18 10 WNW 1006,7 20 0 0,0
19.05.2019 20:00:00 15,6 11,8 14,9 19,4 5 3 12 7 ZW 1006,6 20 3 0,0
19.05.2019 19:00:00 16,4 12,6 15,4 19,4 8 4 29 16 ZW 1006,3 20 0 0,0
19.05.2019 18:00:00 17,6 5,8 19,1 19,3 9 5 27 14 W 1006,1 20 0 0,0
19.05.2019 17:00:00 18,2 7,3 19,6 19,2 11 6 29 15 ZW 1005,9 20 0 0,0
19.05.2019 16:00:00 18,1 11,6 19,9 19,0 21 11 45 25 N 1005,7 20 1 0,0
19.05.2019 15:00:00 19,5 6,6 24,2 18,8 16 9 35 19 WNW 1005,2 20 0 0,0
19.05.2019 14:00:00 18,8 6,3 23,5 18,5 9 5 26 14 WZW 1005,0 20 19 0,0
19.05.2019 13:00:00 19,7 11,5 24,2 18,2 10 5 20 11 OZO 1004,9 20 44 0,0
19.05.2019 12:00:00 19,0 11,8 29,0 18,1 13 7 21 11 OZO 1004,9 20 60 0,0
19.05.2019 11:00:00 18,9 12,6 20,8 18,0 16 9 23 13 O 1004,9 20 52 0,0
19.05.2019 10:00:00 17,6 12,3 18,4 18,1 13 7 23 12 OZO 1004,9 20 55 0,0
19.05.2019 09:00:00 16,2 13,1 15,5 18,1 13 7 23 12 ZO 1004,8 20 43 0,0
19.05.2019 08:00:00 14,4 12,6 13,3 18,2 4 2 10 5 WZW 1004,9 20 0 0,0
19.05.2019 07:00:00 13,3 11,9 12,1 18,3 6 4 11 6 WZW 1005,1 20 0 0,0
19.05.2019 06:00:00 13,0 11,7 11,7 18,3 6 3 12 6 WZW 1004,9 20 0 0,0
19.05.2019 05:00:00 13,1 12,2 11,7 18,4 6 3 8 5 W 1004,8 20 0 0,0
19.05.2019 04:00:00 13,6 12,7 12,1 18,4 6 3 9 5 W 1005,2 20 0 0,0
19.05.2019 03:00:00 14,0 13,0 11,9 18,5 4 2 8 4 WZW 1005,5 20 0 0,0
19.05.2019 02:00:00 14,6 13,5 13,5 18,6 7 4 13 7 Z 1005,9 20 0 0,0
19.05.2019 01:00:00 14,8 13,7 13,9 18,6 9 5 12 7 Z 1006,1 20 0 0,0
19.05.2019 00:00:00 15,3 14,2 14,6 18,6 4 2 8 4 ZW 1006,4 20 0 0,0
18.05.2019 23:00:00 15,4 14,3 14,7 18,7 3 2 8 5 WZW 1006,4 19 0 0,0
18.05.2019 22:00:00 15,5 14,4 14,5 18,7 4 2 12 6 N 1006,0 20 0 0,2
18.05.2019 21:00:00 15,6 14,1 14,7 18,7 9 5 17 9 NO 1005,6 10 0 0,6
18.05.2019 20:00:00 16,1 14,1 15,5 18,6 10 5 21 11 NO 1005,0 20 0 0,2
18.05.2019 19:00:00 16,7 13,4 16,8 18,5 12 6 23 13 NO 1004,3 20 0 0,0
18.05.2019 18:00:00 17,9 13,6 19,6 18,4 11 6 22 12 ONO 1003,8 20 1 0,0
18.05.2019 17:00:00 18,2 14,3 20,2 18,2 14 8 23 13 ONO 1003,1 20 23 0,0
18.05.2019 16:00:00 19,6 13,5 21,3 18,1 14 8 25 14 NNO 1002,6 20 44 0,0
18.05.2019 15:00:00 19,4 13,1 16,9 17,9 9 5 18 10 N 1002,9 20 23 0,2
18.05.2019 14:00:00 16,9 13,6 16,8 17,8 9 5 22 12 ZZO 1002,9 20 5 0,0
18.05.2019 13:00:00 19,2 13,1 21,3 17,7 16 8 24 13 ZO 1002,4 20 53 0,0
18.05.2019 12:00:00 17,3 13,0 20,3 17,6 8 4 16 8 ZZO 1002,4 20 0 0,0
18.05.2019 11:00:00 18,1 12,5 19,2 17,6 10 5 16 9 NNO 1002,0 20 1 0,0
18.05.2019 10:00:00 16,9 12,2 17,8 17,7 9 5 13 7 N 1001,7 20 0 0,0
18.05.2019 09:00:00 15,9 12,1 16,5 17,7 6 4 13 7 NNW 1001,5 20 8 0,0
18.05.2019 08:00:00 14,8 11,4 12,6 17,8 5 3 13 7 W 1001,0 20 60 0,0
18.05.2019 07:00:00 11,9 10,0 9,4 17,9 7 4 16 8 W 1000,6 20 39 0,0
18.05.2019 06:00:00 11,1 9,4 9,4 18,1 9 5 18 10 W 1000,1 20 0 0,0
18.05.2019 05:00:00 11,4 9,8 9,8 18,2 11 6 19 10 W 1000,2 20 0 0,0
18.05.2019 04:00:00 12,0 10,6 10,7 18,2 10 5 16 9 W 1000,9 20 0 0,0
18.05.2019 03:00:00 13,7 12,6 12,7 18,3 3 2 18 10 NO 1001,5 20 0 0,4
18.05.2019 02:00:00 13,8 12,9 13,1 18,4 11 6 22 12 Z 1001,9 19 0 9,6
18.05.2019 01:00:00 14,0 12,7 13,9 18,7 7 4 32 17 W 1002,4 20 0 0,8
18.05.2019 00:00:00 14,6 13,6 14,1 18,8 8 5 29 16 ZW 1002,8 8 0 1,2
17.05.2019 23:00:00 15,4 14,6 13,9 18,9 20 11 37 20 Z 1003,2 6 0 5,6
17.05.2019 22:00:00 14,7 13,7 13,9 19,0 18 10 32 17 ZO 1004,0 3,3 0 9,6
17.05.2019 21:00:00 15,3 13,8 14,3 19,1 16 9 24 13 O 1004,4 6 0 2,2
17.05.2019 20:00:00 15,3 13,7 14,3 19,0 3 2 15 8 ZW 1005,0 15 0 0,6
17.05.2019 19:00:00 15,8 12,9 14,5 18,9 6 4 16 8 ZO 1005,5 20 0 0,0
17.05.2019 18:00:00 15,9 11,3 16,2 18,8 10 5 20 11 ZZO 1006,3 20 0 0,0
17.05.2019 17:00:00 16,2 11,4 17,2 18,6 13 7 26 14 ZZO 1007,1 20 13 0,0
17.05.2019 16:00:00 17,1 11,1 20,9 18,4 16 8 27 14 ZZO 1007,3 20 19 0,0
17.05.2019 15:00:00 18,4 11,0 21,6 18,2 16 9 23 12 ZO 1007,8 20 47 0,0
17.05.2019 14:00:00 17,2 11,0 20,9 17,9 14 8 25 13 ZZO 1008,3 20 12 0,0
17.05.2019 13:00:00 18,0 10,8 21,2 17,7 14 8 29 16 ZZO 1008,8 20 44 0,0
17.05.2019 12:00:00 17,9 11,2 26,4 17,5 18 10 25 14 ZO 1009,0 20 60 0,0
17.05.2019 11:00:00 17,8 10,4 29,0 17,4 12 7 19 10 O 1008,8 20 60 0,0
17.05.2019 10:00:00 17,3 10,4 24,6 17,5 10 6 16 9 O 1009,0 20 58 0,0
17.05.2019 09:00:00 17,1 9,3 18,7 17,5 6 3 11 6 O 1009,4 20 60 0,0
17.05.2019 08:00:00 15,5 8,7 12,5 17,7 2 1 12 7 N 1009,6 20 60 0,0
17.05.2019 07:00:00 11,4 7,3 8,1 17,8 9 5 15 8 W 1009,5 20 35 0,0
17.05.2019 06:00:00 10,6 7,3 8,1 18,0 9 5 15 8 W 1009,4 20 0 0,0
17.05.2019 05:00:00 11,4 7,7 9,0 18,1 8 4 12 6 W 1009,7 20 0 0,0
17.05.2019 04:00:00 11,4 7,7 8,1 18,2 7 4 11 6 W 1010,0 20 0 0,0
17.05.2019 03:00:00 11,6 7,1 9,6 18,3 4 2 24 13 NW 1010,2 20 0 0,0
17.05.2019 02:00:00 12,0 7,9 9,8 18,4 10 5 19 10 W 1010,7 20 0 0,0
17.05.2019 01:00:00 12,2 8,5 10,0 18,5 10 5 18 10 W 1011,2 20 0 0,0
17.05.2019 00:00:00 12,5 8,6 10,6 18,6 9 5 14 8 W 1011,5 20 0 0,0
16.05.2019 23:00:00 12,8 8,7 10,8 18,7 8 4 15 8 W 1011,8 20 0 0,0
16.05.2019 22:00:00 13,2 8,7 10,8 18,7 8 4 16 9 W 1011,7 20 0 0,0
16.05.2019 21:00:00 13,9 8,7 10,6 18,7 6 4 13 7 W 1011,4 20 0 0,0
16.05.2019 20:00:00 15,6 7,9 15,2 18,6 5 3 9 5 ZZO 1011,1 20 58 0,0
16.05.2019 19:00:00 17,0 7,6 18,3 18,4 5 3 14 8 OZO 1011,1 20 60 0,0
16.05.2019 18:00:00 17,0 7,3 20,7 18,1 8 5 16 9 O 1011,1 20 60 0,0
16.05.2019 17:00:00 17,4 8,3 23,0 17,8 12 7 18 10 O 1011,5 20 60 0,0
16.05.2019 16:00:00 17,1 8,5 25,5 17,4 11 6 21 11 O 1011,6 20 60 0,0
16.05.2019 15:00:00 17,4 8,3 26,8 17,1 11 6 21 11 O 1011,9 20 60 0,0
16.05.2019 14:00:00 17,2 7,8 28,9 16,7 13 7 22 12 OZO 1012,2 20 60 0,0
16.05.2019 13:00:00 17,4 8,0 30,6 16,4 14 7 24 13 O 1012,6 20 60 0,0
16.05.2019 12:00:00 17,3 8,4 28,2 16,2 15 8 24 13 O 1012,6 20 60 0,0
16.05.2019 11:00:00 16,9 8,3 25,0 16,2 18 10 28 15 ONO 1012,6 20 60 0,0
16.05.2019 10:00:00 16,9 7,8 23,2 16,2 9 5 20 11 O 1012,7 20 60 0,0
16.05.2019 09:00:00 15,3 6,3 17,3 16,3 8 5 21 12 NO 1012,5 20 60 0,0
16.05.2019 08:00:00 13,3 6,4 10,4 16,4 3 2 16 9 NNW 1012,0 20 60 0,0
16.05.2019 07:00:00 9,9 4,9 6,2 16,6 10 5 19 10 W 1011,9 20 48 0,0
16.05.2019 06:00:00 8,7 5,1 5,9 16,7 9 5 18 10 W 1011,8 20 0 0,0
16.05.2019 05:00:00 9,0 5,4 6,0 16,8 10 6 15 8 W 1011,7 20 0 0,0
16.05.2019 04:00:00 10,6 4,5 8,0 16,9 9 5 17 9 NNW 1011,7 20 0 0,0
16.05.2019 03:00:00 11,1 5,0 9,2 17,0 13 7 24 13 N 1011,7 20 0 0,0
16.05.2019 02:00:00 12,4 5,1 11,4 17,1 16 9 28 15 N 1011,7 20 0 0,0
16.05.2019 01:00:00 12,6 4,8 10,7 17,3 16 8 29 16 N 1011,9 20 0 0,0
16.05.2019 00:00:00 12,1 4,8 9,5 17,4 16 8 26 14 N 1011,9 20 0 0,0
15.05.2019 23:00:00 11,6 5,2 8,7 17,5 16 9 25 13 NNW 1011,8 20 0 0,0
15.05.2019 22:00:00 10,1 7,0 8,6 17,5 11 6 34 18 NNW 1012,1 20 0 0,6
15.05.2019 21:00:00 10,9 7,0 9,8 17,6 14 7 38 21 N 1011,9 20 0 0,2
15.05.2019 20:00:00 11,6 6,9 11,3 17,7 22 12 51 28 N 1011,5 20 0 0,0
15.05.2019 19:00:00 12,4 6,4 10,6 17,7 9 5 42 23 NNW 1011,1 20 0 0,0
15.05.2019 18:00:00 12,2 7,3 10,6 17,7 23 12 43 23 NO 1011,0 20 1 0,2
15.05.2019 17:00:00 13,7 4,8 14,2 17,7 24 13 35 19 ONO 1010,5 20 16 0,0
15.05.2019 16:00:00 13,6 4,7 15,1 17,7 7 4 16 9 NNO 1010,9 20 10 0,0
15.05.2019 15:00:00 14,6 5,1 19,5 17,7 8 5 18 10 N 1011,3 20 60 0,0
15.05.2019 14:00:00 11,2 6,3 9,2 17,8 10 5 20 11 W 1012,0 20 13 0,2
15.05.2019 13:00:00 8,9 5,6 9,1 18,0 18 10 27 15 NNW 1012,9 17 0 1,0
15.05.2019 12:00:00 9,0 6,3 8,9 18,2 9 5 27 15 NNW 1013,2 20 0 0,4
15.05.2019 11:00:00 7,8 5,4 7,0 18,4 15 8 30 16 WNW 1013,7 20 0 0,8
15.05.2019 10:00:00 6,8 4,6 6,7 18,6 11 6 24 13 W 1014,3 18 0 1,8
15.05.2019 09:00:00 7,1 5,1 6,4 18,8 12 6 29 16 W 1014,6 18 0 3,3
15.05.2019 08:00:00 7,7 5,5 7,0 18,9 13 7 29 15 NW 1014,8 14 0 2,6
15.05.2019 07:00:00 8,5 6,5 7,7 19,1 19 10 32 17 NNW 1014,2 11 0 2,2
15.05.2019 06:00:00 10,2 5,8 8,3 19,1 14 8 34 19 NNW 1013,9 12 0 0,2
15.05.2019 05:00:00 10,8 5,3 8,9 19,2 18 10 36 19 W 1013,3 20 0 0,0
15.05.2019 04:00:00 12,9 3,5 12,3 19,3 16 8 31 17 W 1013,4 20 0 0,0
15.05.2019 03:00:00 13,5 4,1 12,6 19,4 9 5 17 9 W 1014,0 20 0 0,0
15.05.2019 02:00:00 13,9 6,5 13,0 19,4 6 4 16 9 NNW 1014,9 20 0 0,0
15.05.2019 01:00:00 14,1 6,9 13,1 19,5 4 2 21 11 WNW 1015,7 20 0 0,0

tt = temperatuur
td = dauwpunt
tt 5cm = temperatuur 5cm
tt -20cm = temperatuur -20cm
ff = windsnelheid
fx = windstoten
dd = windrichting
ppp = luchtdruk
vv = zicht
sd = Zonneschijnduur
rr = neerslag

Weerstations in de omgeving